When you browse on this site, cookies collect data to enhance your experience and personalize the content and advertising you see.
Visit our Privacy Policy to learn more. By continuing to use the site, you agree to this use of cookies and data.
  • In Czech Republic
  • List of Countries
  • For 7 days
  • Water Temperature
  • Weather Map
  • Weather Widgets
  • user-avatar
    Login

    Hourly Weather Klagenfurt

    Today, 5 April, Sunday

    Time Temperature Precipitation Wind Pressure Humidity
    00:00 +3°C° 0 mm 1 mps 694 mmHg 80%
    01:00 +2°C° 0 mm 2 mps 694 mmHg 80%
    02:00 +1°C° 0 mm 2 mps 694 mmHg 82%
    03:00 +2°C° 0 mm 1 mps 694 mmHg 84%
    04:00 +2°C° 0 mm 1 mps 694 mmHg 85%
    05:00 +2°C° 0 mm 1 mps 694 mmHg 82%
    06:00 +3°C° 0 mm 1 mps 695 mmHg 79%
    07:00 +4°C° 0 mm 1 mps 695 mmHg 73%
    08:00 +5°C° 0 mm 2 mps 696 mmHg 63%
    09:00 +8°C° 0 mm 2 mps 696 mmHg 54%
    10:00 +10°C° 0 mm 2 mps 696 mmHg 45%
    11:00 +12°C° 0 mm 2 mps 696 mmHg 42%
    12:00 +13°C° 0 mm 2 mps 696 mmHg 40%
    13:00 +14°C° 0 mm 2 mps 696 mmHg 37%
    14:00 +14°C° 0 mm 2 mps 696 mmHg 39%
    15:00 +13°C° 0 mm 2 mps 695 mmHg 41%
    16:00 +13°C° 0 mm 2 mps 695 mmHg 42%
    17:00 +10°C° 0 mm 2 mps 695 mmHg 51%
    18:00 +9°C° 0 mm 1 mps 695 mmHg 61%
    19:00 +6°C° 0 mm 1 mps 694 mmHg 70%
    20:00 +6°C° 0 mm 1 mps 695 mmHg 71%
    21:00 +5°C° 0 mm 1 mps 695 mmHg 73%
    22:00 +5°C° 0 mm 1 mps 696 mmHg 74%
    23:00 +4°C° 0 mm 1 mps 696 mmHg 75%

    Tomorrow, 6 April, Monday

    Time Temperature Precipitation Wind Pressure Humidity
    00:00 +4°C° 0 mm 1 mps 696 mmHg 76%
    01:00 +4°C° 0 mm 1 mps 696 mmHg 76%
    02:00 +4°C° 0 mm 1 mps 695 mmHg 78%
    03:00 +4°C° 0 mm 1 mps 695 mmHg 79%
    04:00 +3°C° 0 mm 1 mps 695 mmHg 81%
    05:00 +4°C° 0 mm 1 mps 696 mmHg 79%
    06:00 +5°C° 0 mm 1 mps 696 mmHg 77%
    07:00 +6°C° 0 mm 1 mps 696 mmHg 74%
    08:00 +8°C° 0 mm 1 mps 696 mmHg 67%
    09:00 +9°C° 0 mm 2 mps 697 mmHg 59%
    10:00 +12°C° 0 mm 2 mps 697 mmHg 52%
    11:00 +13°C° 0 mm 2 mps 697 mmHg 49%
    12:00 +14°C° 0 mm 2 mps 697 mmHg 46%
    13:00 +15°C° 0 mm 2 mps 697 mmHg 43%
    14:00 +14°C° 0 mm 2 mps 697 mmHg 43%
    15:00 +14°C° 0 mm 2 mps 697 mmHg 44%
    16:00 +14°C° 0 mm 2 mps 697 mmHg 44%
    17:00 +12°C° 0 mm 2 mps 697 mmHg 52%
    18:00 +9°C° 0 mm 2 mps 697 mmHg 60%
    19:00 +7°C° 0 mm 1 mps 697 mmHg 68%
    20:00 +6°C° 0 mm 1 mps 697 mmHg 70%
    21:00 +5°C° 0 mm 1 mps 698 mmHg 72%
    22:00 +5°C° 0 mm 1 mps 698 mmHg 74%
    23:00 +4°C° 0 mm 1 mps 698 mmHg 76%

    Day after tomorrow, 7 April, Tuesday

    Time Temperature Precipitation Wind Pressure Humidity
    00:00 +4°C° 0 mm 1 mps 698 mmHg 77%
    01:00 +3°C° 0 mm 1 mps 698 mmHg 79%
    02:00 +3°C° 0 mm 1 mps 698 mmHg 80%
    03:00 +2°C° 0 mm 1 mps 698 mmHg 81%
    04:00 +2°C° 0 mm 1 mps 698 mmHg 82%
    05:00 +3°C° 0 mm 1 mps 698 mmHg 79%
    06:00 +3°C° 0 mm 1 mps 698 mmHg 75%
    07:00 +4°C° 0 mm 1 mps 698 mmHg 72%
    08:00 +6°C° 0 mm 1 mps 698 mmHg 61%
    09:00 +9°C° 0 mm 1 mps 699 mmHg 51%
    10:00 +10°C° 0 mm 2 mps 699 mmHg 40%
    11:00 +12°C° 0 mm 2 mps 699 mmHg 37%
    12:00 +14°C° 0 mm 2 mps 699 mmHg 33%
    13:00 +15°C° 0 mm 2 mps 699 mmHg 30%
    14:00 +15°C° 0 mm 2 mps 699 mmHg 31%
    15:00 +15°C° 0 mm 2 mps 699 mmHg 32%
    16:00 +14°C° 0 mm 2 mps 699 mmHg 33%
    17:00 +12°C° 0 mm 2 mps 698 mmHg 41%
    18:00 +9°C° 0 mm 1 mps 698 mmHg 50%
    19:00 +6°C° 0 mm 1 mps 698 mmHg 59%
    20:00 +6°C° 0 mm 1 mps 698 mmHg 59%
    21:00 +5°C° 0 mm 1 mps 698 mmHg 60%
    22:00 +4°C° 0 mm 1 mps 698 mmHg 60%
    23:00 +4°C° 0 mm 1 mps 698 mmHg 61%

    8 April, Wednesday

    Time Temperature Precipitation Wind Pressure Humidity
    00:00 +3°C° 0 mm 1 mps 698 mmHg 62%
    01:00 +3°C° 0 mm 1 mps 698 mmHg 62%
    02:00 +2°C° 0 mm 1 mps 698 mmHg 64%
    03:00 +2°C° 0 mm 1 mps 697 mmHg 65%
    04:00 +2°C° 0 mm 1 mps 697 mmHg 66%
    05:00 +3°C° 0 mm 1 mps 697 mmHg 63%
    06:00 +4°C° 0 mm 1 mps 697 mmHg 60%
    07:00 +5°C° 0 mm 1 mps 697 mmHg 57%
    08:00 +7°C° 0 mm 1 mps 698 mmHg 50%
    09:00 +10°C° 0 mm 1 mps 698 mmHg 42%
    10:00 +12°C° 0 mm 1 mps 698 mmHg 34%
    11:00 +13°C° 0 mm 1 mps 698 mmHg 33%
    12:00 +14°C° 0 mm 1 mps 697 mmHg 32%
    13:00 +15°C° 0 mm 2 mps 697 mmHg 32%
    14:00 +15°C° 0 mm 2 mps 697 mmHg 33%
    15:00 +15°C° 0 mm 1 mps 696 mmHg 35%
    16:00 +15°C° 0 mm 1 mps 696 mmHg 36%
    17:00 +12°C° 0 mm 1 mps 695 mmHg 45%
    18:00 +10°C° 0 mm 1 mps 695 mmHg 54%
    19:00 +7°C° 0 mm 1 mps 695 mmHg 62%
    20:00 +7°C° 0 mm 1 mps 695 mmHg 64%
    21:00 +6°C° 0 mm 1 mps 695 mmHg 65%
    22:00 +5°C° 0 mm 1 mps 695 mmHg 66%
    23:00 +5°C° 0 mm 1 mps 695 mmHg 68%

    9 April, Thursday

    Time Temperature Precipitation Wind Pressure Humidity
    00:00 +5°C° 0 mm 1 mps 695 mmHg 69%
    01:00 +3°C° 0 mm 0 mps 694 mmHg 71%
    02:00 +3°C° 0 mm 0 mps 694 mmHg 72%
    03:00 +3°C° 0 mm 0 mps 694 mmHg 73%
    04:00 +2°C° 0 mm 0 mps 694 mmHg 74%
    05:00 +3°C° 0 mm 0 mps 694 mmHg 71%
    06:00 +4°C° 0 mm 0 mps 694 mmHg 68%
    07:00 +5°C° 0 mm 0 mps 694 mmHg 64%
    08:00 +9°C° 0 mm 1 mps 694 mmHg 57%
    09:00 +12°C° 0 mm 1 mps 695 mmHg 49%
    10:00 +14°C° 0 mm 1 mps 695 mmHg 42%
    11:00 +15°C° 0 mm 1 mps 695 mmHg 39%
    12:00 +18°C° 0 mm 1 mps 695 mmHg 36%
    13:00 +19°C° 0 mm 1 mps 695 mmHg 33%
    14:00 +19°C° 0 mm 1 mps 695 mmHg 34%
    15:00 +18°C° 0 mm 1 mps 694 mmHg 35%
    16:00 +18°C° 0 mm 1 mps 694 mmHg 36%
    17:00 +15°C° 0 mm 1 mps 693 mmHg 44%
    18:00 +12°C° 0 mm 1 mps 693 mmHg 52%
    19:00 +10°C° 0 mm 1 mps 693 mmHg 61%
    20:00 +9°C° 0 mm 1 mps 693 mmHg 62%
    21:00 +9°C° 0 mm 1 mps 693 mmHg 63%
    22:00 +7°C° 0 mm 0 mps 694 mmHg 64%
    23:00 +8°C° 0 mm 1 mps 694 mmHg 66%

    10 April, Friday

    Time Temperature Precipitation Wind Pressure Humidity
    00:00 +7°C° 0 mm 1 mps 694 mmHg 68%
    01:00 +7°C° 0 mm 1 mps 694 mmHg 69%
    02:00 +7°C° 0 mm 1 mps 693 mmHg 71%
    03:00 +6°C° 0 mm 1 mps 693 mmHg 72%
    04:00 +6°C° 0 mm 1 mps 693 mmHg 73%
    05:00 +7°C° 0 mm 1 mps 694 mmHg 71%
    06:00 +7°C° 0 mm 0 mps 694 mmHg 69%
    07:00 +8°C° 0 mm 0 mps 694 mmHg 66%
    08:00 +12°C° 0 mm 1 mps 695 mmHg 59%
    09:00 +14°C° 0 mm 1 mps 695 mmHg 52%
    10:00 +18°C° 0 mm 1 mps 695 mmHg 45%
    11:00 +18°C° 0 mm 1 mps 695 mmHg 44%
    12:00 +19°C° 0 mm 1 mps 695 mmHg 42%
    13:00 +20°C° 0 mm 1 mps 695 mmHg 41%
    14:00 +20°C° 0 mm 1 mps 695 mmHg 42%
    15:00 +19°C° 0 mm 1 mps 694 mmHg 43%
    16:00 +19°C° 0 mm 1 mps 694 mmHg 44%
    17:00 +16°C° 0 mm 1 mps 694 mmHg 52%
    18:00 +14°C° 0 mm 1 mps 693 mmHg 60%
    19:00 +11°C° 0 mm 1 mps 693 mmHg 69%
    20:00 +11°C° 0 mm 1 mps 693 mmHg 70%
    21:00 +10°C° 0 mm 1 mps 693 mmHg 72%
    22:00 +10°C° 0 mm 1 mps 693 mmHg 74%
    23:00 +9°C° 0 mm 1 mps 693 mmHg 75%
    Show more